TimeEST,TemperatureF,Dew PointF,Humidity,Sea Level PressureIn,VisibilityMPH,Wind Direction,Wind SpeedMPH,Gust SpeedMPH,PrecipitationIn,Events,Conditions,WindDirDegrees,DateUTC
12:45 AM,44.6,44.6,100,29.99,0.2,West,12.7,-,N/A,Fog,Fog,260,2013-01-29 05:45:00
12:56 AM,44.1,44.1,100,30.02,0.2,West,11.5,-,N/A,Fog,Fog,260,2013-01-29 05:56:00
1:23 AM,44.6,44.6,100,29.99,0.2,West,9.2,-,N/A,Fog,Fog,260,2013-01-29 06:23:00
1:39 AM,44.6,44.6,100,29.99,0.2,West,9.2,-,N/A,Fog,Fog,260,2013-01-29 06:39:00
1:56 AM,44.1,44.1,100,30.02,0.2,WSW,10.4,-,N/A,Fog,Fog,250,2013-01-29 06:56:00
2:11 AM,44.6,44.6,100,30.00,0.2,West,9.2,-,N/A,Fog,Fog,260,2013-01-29 07:11:00
2:56 AM,44.1,44.1,100,30.03,0.2,West,8.1,-,N/A,Fog,Fog,260,2013-01-29 07:56:00
3:56 AM,44.1,44.1,100,30.02,0.2,West,5.8,-,N/A,Fog,Fog,260,2013-01-29 08:56:00
4:56 AM,44.1,44.1,100,30.03,0.2,WSW,6.9,-,N/A,Fog,Fog,250,2013-01-29 09:56:00
5:39 AM,44.6,44.6,100,30.00,0.2,WSW,6.9,-,N/A,Fog,Fog,240,2013-01-29 10:39:00
5:56 AM,44.1,44.1,100,30.03,0.2,WSW,4.6,-,N/A,Fog,Fog,240,2013-01-29 10:56:00
6:26 AM,44.6,44.6,100,30.00,0.2,SW,5.8,-,N/A,Fog,Fog,220,2013-01-29 11:26:00
6:37 AM,44.6,44.6,100,30.00,0.2,SW,6.9,-,N/A,Fog,Fog,220,2013-01-29 11:37:00
6:56 AM,44.1,44.1,100,30.03,0.2,SW,4.6,-,N/A,Fog,Fog,220,2013-01-29 11:56:00
7:13 AM,44.6,44.6,100,30.01,0.2,SW,4.6,-,N/A,Fog,Fog,220,2013-01-29 12:13:00
7:56 AM,45.0,45.0,100,30.04,0.2,SW,4.6,-,N/A,Fog,Fog,220,2013-01-29 12:56:00
8:56 AM,45.0,45.0,100,30.04,0.2,South,3.5,-,N/A,Fog,Fog,170,2013-01-29 13:56:00
9:18 AM,44.6,44.6,100,30.01,0.2,SSE,3.5,-,N/A,Fog,Fog,160,2013-01-29 14:18:00
9:56 AM,46.0,46.0,100,30.03,0.2,South,3.5,-,N/A,Fog,Fog,180,2013-01-29 14:56:00
10:56 AM,46.9,46.9,100,30.01,0.2,Calm,Calm,-,N/A,Fog,Fog,0,2013-01-29 15:56:00
11:56 AM,48.9,48.9,100,29.98,0.2,South,4.6,-,N/A,Fog,Fog,180,2013-01-29 16:56:00
12:26 PM,50.0,48.2,94,29.95,0.5,SSW,9.2,17.3,N/A,Fog,Fog,200,2013-01-29 17:26:00
12:34 PM,50.0,48.2,94,29.95,0.2,SSW,8.1,-,N/A,Fog,Fog,200,2013-01-29 17:34:00
12:56 PM,50.0,50.0,100,29.96,0.2,SW,10.4,-,N/A,Fog,Fog,220,2013-01-29 17:56:00
1:11 PM,50.0,50.0,100,29.93,0.5,SSW,8.1,-,N/A,Fog,Fog,200,2013-01-29 18:11:00
1:30 PM,50.0,50.0,100,29.93,1.0,SSW,8.1,-,N/A,,Overcast,210,2013-01-29 18:30:00
1:56 PM,51.1,50.0,96,29.93,2.0,SSW,9.2,-,N/A,,Overcast,210,2013-01-29 18:56:00
2:05 PM,51.8,50.0,94,29.92,2.5,SW,9.2,-,N/A,,Overcast,220,2013-01-29 19:05:00
2:27 PM,51.8,51.8,100,29.90,3.0,SSW,5.8,-,N/A,,Overcast,210,2013-01-29 19:27:00
2:56 PM,53.1,51.1,93,29.92,4.0,SSW,5.8,-,N/A,,Overcast,210,2013-01-29 19:56:00
3:11 PM,53.6,51.8,94,29.92,1.2,SSW,5.8,-,N/A,,Overcast,200,2013-01-29 20:11:00
3:17 PM,53.6,51.8,94,29.92,3.0,SW,6.9,-,N/A,,Overcast,220,2013-01-29 20:17:00
3:56 PM,54.0,52.0,93,29.94,6.0,WSW,6.9,-,N/A,,Overcast,250,2013-01-29 20:56:00
4:28 PM,53.6,51.8,94,29.93,5.0,SSW,3.5,-,N/A,,Overcast,200,2013-01-29 21:28:00
4:56 PM,53.1,52.0,96,29.94,3.0,SSW,5.8,-,0.01,Rain,Light Rain,200,2013-01-29 21:56:00
5:56 PM,54.0,52.0,93,29.93,7.0,South,4.6,-,0.01,,Overcast,180,2013-01-29 22:56:00
6:56 PM,55.0,52.0,89,29.91,9.0,South,4.6,-,0.01,,Overcast,190,2013-01-29 23:56:00
7:56 PM,53.1,51.1,93,29.91,6.0,SE,5.8,-,N/A,,Scattered Clouds,130,2013-01-30 00:56:00
8:56 PM,53.1,50.0,89,29.88,9.0,SE,6.9,-,N/A,,Clear,140,2013-01-30 01:56:00
9:56 PM,54.0,50.0,86,29.88,10.0,SSE,8.1,-,N/A,,Clear,150,2013-01-30 02:56:00
10:56 PM,54.0,48.9,83,29.85,10.0,SE,6.9,-,N/A,,Clear,140,2013-01-30 03:56:00
11:56 PM,53.1,48.0,83,29.83,10.0,SSE,5.8,-,N/A,,Clear,150,2013-01-30 04:56:00